Location: Newark
(34.6283°N, 36.0776°E)
Time: 16:03:31
(UTC+00:00)

SR - All Passes

Search period start: 22 September 2019 00:00
Search period end: 02 October 2019 00:00
Orbit: 576 x 880 km, 66.7° (Epoch: 22 September)

Date Brightness Start Highest point End Pass type
(mag) Time Alt. Az. Time Alt. Az. Time Alt. Az.
22 Sep - 01:16:05 10° SSE 01:19:28 21° ESE 01:23:02 10° ENE visible
22 Sep - 02:56:59 10° WSW 03:01:11 34° WNW 03:05:45 10° N visible
22 Sep - 10:00:29 10° NNE 10:02:45 12° NE 10:05:04 10° ENE daylight
22 Sep - 11:39:54 10° NNW 11:45:45 76° ENE 11:51:40 10° SSE daylight
22 Sep - 13:24:20 10° WNW 13:27:12 14° WSW 13:30:05 10° SW daylight
23 Sep - 02:06:52 10° SSW 02:11:25 77° WNW 02:16:25 10° NNE visible
23 Sep - 10:50:33 10° N 10:55:59 39° ENE 11:01:29 10° SE daylight
23 Sep - 12:32:57 10° NW 12:37:56 29° WSW 12:42:55 10° SSW daylight
24 Sep - 01:17:35 10° S 01:21:53 45° ESE 01:26:36 10° NE visible
24 Sep - 03:00:56 10° W 03:04:14 19° NW 03:07:46 10° N visible
24 Sep - 10:01:39 10° N 10:06:01 21° NE 10:10:26 10° E daylight
24 Sep - 11:42:43 10° NW 11:48:30 59° WSW 11:54:16 10° S daylight
25 Sep - 00:29:20 10° SSE 00:32:35 19° ESE 00:36:02 10° ENE visible
25 Sep - 02:09:58 10° SW 02:14:15 37° WNW 02:18:56 10° N visible
25 Sep - 09:13:53 10° NNE 09:15:49 12° NE 09:17:46 10° ENE daylight
25 Sep - 10:53:01 10° NNW 10:58:53 71° ENE 11:04:47 10° SSE daylight
25 Sep - 12:37:12 10° WNW 12:40:22 15° WSW 12:43:32 10° SW daylight
26 Sep - 01:19:56 10° SSW 01:24:30 83° WNW 01:29:33 10° NNE visible
26 Sep - 03:07:05 10° NW 03:07:31 10° NW 03:07:57 10° NW daylight
26 Sep - 10:03:42 10° N 10:09:05 37° ENE 10:14:32 10° ESE daylight
26 Sep - 11:45:59 10° NW 11:51:05 31° WSW 11:56:10 10° SSW daylight
27 Sep - 00:30:43 10° S 00:35:00 42° ESE 00:39:41 10° NE visible
27 Sep - 02:13:49 10° W 02:17:18 20° NW 02:21:01 10° N visible
27 Sep - 09:14:50 10° N 09:19:06 20° NE 09:23:23 10° E daylight
27 Sep - 10:55:49 10° NNW 11:01:37 63° WSW 11:07:26 10° SSE daylight
27 Sep - 23:42:36 10° SSE 23:45:43 18° ESE 23:49:01 10° ENE visible
28 Sep - 01:22:58 10° SW 01:27:20 40° WNW 01:32:06 10° NNE visible
28 Sep - 08:27:21 10° NNE 08:28:52 11° NE 08:30:25 10° ENE daylight
28 Sep - 10:06:09 10° NNW 10:12:00 67° ENE 10:17:52 10° SE daylight
28 Sep - 11:50:06 10° WNW 11:53:31 16° WSW 11:56:57 10° SW daylight
29 Sep - 00:33:00 10° SSW 00:37:36 89° WNW 00:42:41 10° NNE visible
29 Sep - 02:19:14 10° WNW 02:20:33 11° NW 02:21:53 10° NNW visible
29 Sep - 09:16:51 10° N 09:22:12 35° ENE 09:27:33 10° ESE daylight
29 Sep - 10:59:01 10° NW 11:04:13 33° WSW 11:09:24 10° S daylight
29 Sep - 23:43:52 10° S 23:48:08 39° ESE 23:52:45 10° NE visible
30 Sep - 01:26:44 10° WSW 01:30:21 21° NW 01:34:14 10° N visible
30 Sep - 08:28:03 10° N 08:32:11 19° NE 08:36:19 10° E daylight
30 Sep - 10:08:55 10° NNW 10:14:46 67° WSW 10:20:35 10° SSE daylight
30 Sep - 22:55:53 10° SE 22:58:51 17° ESE 23:01:58 10° ENE visible
01 Oct - 00:35:58 10° SW 00:40:24 43° WNW 00:45:16 10° NNE visible
01 Oct - 07:41:00 10° NE 07:41:56 10° NE 07:42:51 10° NE daylight
01 Oct - 09:19:17 10° NNW 09:25:07 63° ENE 09:30:58 10° SE daylight
01 Oct - 11:03:01 10° WNW 11:06:41 17° WSW 11:10:20 10° SW daylight
01 Oct - 23:46:04 10° SSW 23:50:41 85° ESE 23:55:48 10° NNE visible
